{"data":{"norad_id":40143,"epoch":"2026-05-25T05:09:24.321312Z","epoch_age_seconds":59959,"freshness":"FRESH","line1":"1 40143U 14053A   26145.21486483  .00005059  00000+0  19937-3 0  9999","line2":"2 40143  97.1492 186.4414 0008771 161.7265 198.4291 15.25980229651453","mean_motion":15.25980229,"eccentricity":0.0008771,"inclination_deg":97.1492,"raan_deg":186.4414,"arg_perigee_deg":161.7265,"mean_anomaly_deg":198.4291,"bstar":0.00019937,"rev_number":65145,"period_min":94.365573854365,"perigee_km":481.82141882485,"apogee_km":493.86572194142,"semimajor_km":6865.9805703831,"source":"CELESTRAK","updated_at":"2026-05-25T13:38:12.786381Z"}}